Showing default

TOMORROW-R2, 56962

Orbit data source: Space-Track

TOMORROW-R2, 56962 is a payload satellite owned by Tomorrow.io (US) in SSO that was launched on Mon, 12 Jun 2023 UTC via an FALCON 9 launch vehicle from the Air Force Western Test Range (AFWTR). Payload-class satellites include a variety of spacecraft equipped with specific instruments for various scientific and technological missions. These include communications satellites like Starlink; space stations such as the ISS; scientific satellites like the Hubble; Earth observation satellites from companies like Planet Labs, Umbra, and HawkEye 360; GPS; miniature CubeSats for education and research; and military/defense satellites.

Not visible in the next 10 days
Identifier
56962, 2023-084AG
Orbit
SSO
Country
Flag of USUS
Related business
Manufacturer
Astro Digital
Mission
Operational Commercial Radar Imaging
Bus & Motor
CORVUS-XL, Unknown motor
Mass
85 kg wet, 85 kg dry
Launch date (UTC)
2023-06-12 (3 years ago)
Launch vehicle
FALCON 9
Launch site
Air Force Western Test Range (AFWTR)
Object type
Payload
Rocket body
Debris
Shape & HBR
Box + 1 Dish, 1.0 m
Radar Cross Section
0.425 m², Medium (>0.1 m² and < 1m²)

Expand to show TLE details & history
Last TLE update: 8 hours ago

TLE from 8 hours ago
0 TOMORROW-R2
1 56962U 23084AG  26165.92807453  .00473008  10887-3  64067-3 0  9998
2 56962  97.6051 329.8338 0008295 243.4573 116.5858 16.06341601168698
Epoch: 2026-06-14T22:16Z
TLE epoch observation values (Epoch: 2026-06-14T22:16:25.639Z)
Latitude
-0.00002°
Longitude
92.50519°
Altitude
262.566 km
Speed
7.748 km/s
True Right ascension
21h 59m 20s
True Declination
0° 00' 00"
Sunlit
Object was in full shadow at epoch
Visualization orbit readout
Latitude
Unknown
Longitude
Unknown
Altitude
Unknown
Speed
Unknown
Apparent Right ascension
Unknown
Apparent Declination
Unknown
Sunlit
N/A
Visualization observer readout
Local Sidereal Time
16:53:53
Azimuth
Unknown
Elevation
Unknown
Doppler factor
Unknown
Orbital elements
Apogee altitude
259.26 km
Perigee altitude
248.258 km
Semi-major axis
6,631.896 km
Eccentricity
0.00083
Inclination
97.6051°
RAAN
329.8338°
Arg. of periapsis
243.4573°
True anomaly
116.67076°
Mean anomaly
116.5858°
Eccentric anomaly
116.62829°
Mean motion
4.01871 °/min
Orbital period
89.58 mins
BSTAR
0.00064067
Loading maneuver chart data...
Computing Atmospheric mass density...

Documentation

Showing up to 5 results
|